Regional Weather Roundup
Issued by NWS Grand Forks, ND

Home | Current Version | Previous Version | Graphics & Text | Print | Product List | Glossary On
Versions: 1 2 3 4 5 6 7 8 9 10 11 12 13 14 15 16 17 18 19 20 21 22 23 24 25 26 27 28 29 30 31 32 33 34 35 36 37 38 39 40 41 42 43 44 45 46 47 48 49 50
793
ASUS43 KFGF 250410
RWRFGF
PRAIRIE TO PINES  WEATHER ROUNDUP
NATIONAL WEATHER SERVICE EASTERN NORTH DAKOTA/GRAND FORKS ND
1100 PM CDT FRI MAR 24 2017

 **SATELLITE DATA USED TO AUGMENT SKY COVER AT AUTOMATED STATIONS**
 *****  WEATHER ACROSS EASTERN NORTH DAKOTA  *****

CITY           SKY/WX    TMP DP  RH WIND       PRES   REMARKS
GRAND FORKS    FAIR      28  27  96 N6        30.23F WCI  22
GRAND FRKS AFB FAIR      26  26  99 NE6       30.23S WCI  19
DEVILS LAKE    CLOUDY    29  26  89 SE8       30.21S WCI  21
FARGO          FAIR      31  29  92 N7        30.21R WCI  24
WAHPETON ARPT  FAIR      32  28  86 NE6       30.19S
$$

 ***** WEATHER ACROSS CENTRAL AND WESTERN NORTH DAKOTA  *****

CITY           SKY/WX    TMP DP  RH WIND       PRES   REMARKS
BISMARCK       FAIR      31  29  92 E8        30.15S WCI  23
MINOT          FAIR      30  27  88 E12       30.11F WCI  20
JAMESTOWN      CLOUDY    30  27  88 E7        30.19S WCI  23
MINOT AFB      FAIR      29  27  91 SE16      30.10F WCI  17
GARRISON         N/A     30  28  92 SE13      30.09F WCI  20
WILLISTON      FAIR      45  32  60 SE16G25   29.96S
DICKINSON      FAIR      37  31  78 SE15      30.00F
HETTINGER      FAIR      42  31  64 SE17      30.04F
$$

 *****  OTHER AIRPORT OBSERVATIONS IN OUR AREA  *****

CITY           SKY/WX    TMP DP  RH WIND       PRES   REMARKS
WALHALLA       NOT AVBL
GRAFTON AIRPOR FAIR      28  28 100 NE5       30.26S WCI  23
VALLEY CITY AR FAIR      27  27 100 NE5       30.21F WCI  21
CANDO          NOT AVBL
CAVALIER APRT    N/A     28  27  93 CALM      30.23F
GWINNER        CLEAR     30  28  93 MISG      30.20R
SHEYENNE NWR     N/A     29  26  90 N5        29.95S WCI  24
ROLLA          CLOUDY    27  27 100 SE10      30.17F WCI  17
 ***** THE ABOVE OBSERVATIONS ARE NON NWS ARE NOT QUALITY
       CONTROLLED AND MAY MIS-REPORT RAIN FOR SNOW...
$$

  *****  WEATHER ACROSS NORTHERN MINNESOTA  *****

CITY           SKY/WX    TMP DP  RH WIND       PRES   REMARKS
FLAG ISLAND    FAIR      32  25  74 E3        30.26R
WARROAD        FAIR      30  27  86 NE5       30.26R
ROSEAU         FAIR      30  27  86 CALM      30.25R
HALLOCK        FAIR      30  28  93 CALM      30.24F
THF RVR FALLS  FAIR     N/A N/A N/A NE9       30.23S
BAUDETTE       FAIR      30  23  75 E5        30.23R
WASKISH        CLOUDY    36  28  75 E5        30.22S
CROOKSTON      FAIR      30  28  93 N3        30.23F
GREENBUSH NDAW   N/A     30  28  93 E3          N/A
$$
  *****  WEATHER ACROSS CENTRAL AND WEST MINNESOTA  *****

CITY           SKY/WX    TMP DP  RH WIND       PRES   REMARKS
FOSSTON        FAIR      27  27 100 CALM      30.22R
BEMIDJI        CLOUDY    35  29  80 E6        30.20R
PARK RAPIDS    CLOUDY    38  27  64 E8        30.17F
ELBOW LAKE     FAIR      32  30  94 CALM      30.19S
WADENA         CLOUDY    36  28  75 E6        30.18F
DETROIT LAKES  FAIR      34  30  86 SE6       30.19S
MOORHEAD       FAIR      30  28  93 N9        30.22R WCI  22
FERGUS FALLS   FAIR      36  30  80 E3        30.23R
MORRIS MN      FAIR      32  30  93 CALM      30.19R
STAPLES        CLOUDY    37  28  70 E7        30.19F
$$
  *****  WEATHER ELSEWHERE ACROSS MINNESOTA  *****

CITY           SKY/WX    TMP DP  RH WIND       PRES   REMARKS
DULUTH         CLOUDY    34  32  92 E12       30.21S
INTRNTL FALLS  CLOUDY    34  27  75 E6        30.24F
ELY            CLOUDY    34  32  93 CALM      30.25R
CLOQUET        CLOUDY    34  30  86 E6        30.21F
WHEATON        MOCLDY    30  28  93 CALM      30.22S
BRAINERD       CLOUDY    36  30  79 NE5       30.21R
HIBBING        CLOUDY    32  31  96 NE3       30.22S
ALEXANDRIA     CLOUDY    36  30  79 NE9       30.19R
SAINT CLOUD    CLOUDY    38  32  79 NE8       30.17S
MINNEAPOLIS    CLOUDY    40  33  76 E13G22    30.17S
$$

  *****  WEATHER ACROSS SOUTH DAKOTA  *****

CITY           SKY/WX    TMP DP  RH WIND       PRES   REMARKS
SIOUX FALLS    CLOUDY    38  34  85 NE15      30.13S
BROOKINGS      FAIR      35  32  88 E6        30.13F
WATERTOWN      CLOUDY    34  32  92 NE8       30.16R
HURON          CLOUDY    34  33  96 VRB3      30.17R
SISSETON         N/A     29  28  96 NW6       30.19S WCI  23
ABERDEEN       FAIR      30  26  85 E8        30.20R WCI  22
MITCHELL       CLOUDY    39  35  86 E6        30.16S
PIERRE         FAIR      34  30  85 SE3       30.14R
MOBRIDGE       FAIR      37  30  75 SE10      30.12R
RAPID CITY     FAIR      42  29  59 SE9       30.07R
$$

  *****  SOME WEATHER IN NEARBY STATES *****

CITY           SKY/WX    TMP DP  RH WIND       PRES   REMARKS
GLASGOW MT     FAIR      53  30  41 SE18      29.79F
GREAT FALLS MT CLOUDY    51  28  41 W18       29.77R
CHEYENNE WY    FAIR      35  24  64 SW7       30.14R
SCOTTSBLUFF NE FAIR      36  28  73 E8        30.11S
OMAHA NE       LGT RAIN  42  38  85 N18       30.00S
DES MOINES IA  CLOUDY    44  42  93 NE18G26   29.97F
DAVENPORT IA   LGT RAIN  54  53  97 N3        30.01R FOG
CHICAGO IL     CLOUDY    43  36  76 N15       30.07S
EAU CLAIRE WI  CLOUDY    39  34  82 NE10      30.15F
LA CROSSE WI   LGT RAIN  41  38  89 E5        30.14R
$$

  *****  SOME NATIONAL WEATHER *****

CITY           SKY/WX    TMP DP  RH WIND       PRES   REMARKS
LA GUARDIA NY  CLOUDY    55  32  41 SW7       30.13S
RALEIGH NC     FAIR      60  47  61 SW12      30.35R
ATLANTA GA     MOCLDY    66  49  54 SE8       30.28F
NEW ORLEANS LA CLOUDY    71  66  84 SE15      30.13R
OKLAHOMA CITY  LGT RAIN  56  49  77 W8        29.73R
ALBUQUERQUE NM FAIR      57  16  20 N9        30.16R
SALT LAKE CITY FAIR      55  34  45 S14       30.02R
LOS ANGELES CA FAIR      59  49  69 W18       30.17R
BOISE ID       MOCLDY    46  42  86 E6        30.05R
SEATTLE WA     CLOUDY    47  43  86 S10       29.97R
$$

*** WEATHER ACROSS MANITOBA...SASKATCHEWAN AND ONTARIO ***
                ***ONTARIO***

CITY           SKY/WX    TMP DP  RH WIND       PRES   REMARKS
GERALDTON      CLEAR     14  -6  41 NE8       30.36R WCI   3
THUNDER BAY    MOCLDY    32  19  59 NE5       30.31S
SIOUX LOOKOUT  PTCLDY    27  12  54 E6        30.28R WCI  20
TORONTO        LGT RAIN  39  36  87 NE7       30.12R
BIG TROUT LK   CLEAR     -6 -11  77 CALM      30.41R
PICKLE LAKE    NOT AVBL
DRYDEN         CLEAR     27  21  80 E2        30.25S
KENORA         PTCLDY    27  23  86 E2        30.26R
$$
                *** MANITOBA***

CITY           SKY/WX    TMP DP  RH WIND       PRES   REMARKS
BRANDON        MOCLDY    28  25  86 SE8       30.19F WCI  20
DAUPHIN        CLEAR     28  23  80 SE7       30.18S WCI  21
ISLAND LAKE    PTCLDY    14  -4  44 SE7       30.35R WCI   4
PILOT MOUND      N/A     28  25  86 SE10        N/A  WCI  19
THE PAS        CLOUDY    21  10  63 SE8       30.17F WCI  12
THOMPSON       CLOUDY    12  -2  52 E5        30.28F WCI   4
WINNIPEG       CLOUDY    32  27  80 CALM      30.26S
LYNN LAKE      CLOUDY    14   5  67 SE6       30.16S WCI   5
CHURCHILL      CLEAR     -6 -15  65 SW9       30.39S WCI -22
GILLAM         CLEAR      1 -11  55 SE6       30.37F WCI -10
$$
                ***SASKATCHEWAN***

CITY           SKY/WX    TMP DP  RH WIND       PRES   REMARKS
ESTEVAN        MOCLDY    32  30  93 SE21G28   30.00F WCI  20
KINDERSLEY     CLOUDY    41  34  75 E12       29.67F
LLOYDMINSTER   MOCLDY    34  30  86 E14       29.72F WCI  24
PRINCE ALBERT  CLOUDY    30  25  80 E17G24    29.94F WCI  18
REGINA         CLOUDY    34  30  86 SE22G29   29.92S WCI  22
YORKTON        PTCLDY    30  27  86 SE18G24   30.05F WCI  18
N. BATTLEFORD  CLOUDY    34  28  80 E25G31    29.78F WCI  21
LA RONGE       MOCLDY    27  19  74 E13       30.02S WCI  16
SASKATOON      CLOUDY    37  30  75 SE18G26   29.83F
SWIFT CURRENT  CLOUDY    50  32  50 S13G20    29.72F
$$
NOTE: THESE ARE AUTOMATED STATIONS WITH LIMITED QUALITY CONTROL
      "FAIR" INDICATES FEW OR NO CLOUDS BELOW 12,000 FEET WITH NO
      SIGNIFICANT WEATHER AND/OR OBSTRUCTIONS TO VISIBILITY.
      SKY/WX - SKY CONDITION AND SIGNIFICANT WEATHER.
      TMP - AIR TEMPERATURE.    DP   - DEWPOINT TEMPERATURE.
      RH  - RELATIVE HUMIDITY.  PRES - PRESSURE.
      HX  - HEAT INDEX.         WCI  - WIND CHILL INDEX.
$




USA.gov is the U.S. government's official web portal to all federal, state and local government web resources and services.